HULIANWANG DIGUI-120

导读 | 豆包AI

HULIANWANG DIGUI-120是中国于2025年12月11日发射的低轨互联网卫星,属于中国低轨卫星互联网组网建设的组成部分。该卫星主要用于提供全球宽带互联网接入服务,可支撑偏远地区通信、物联网互联以及高速移动场景下的网络服务,将推动天地一体化信息网络构建,增强中国卫星通信能力,服务全球网络覆盖需求。

基本信息
目录编号:
67060
目录名称:
HULIANWANG DIGUI-120
国际标识:
2025-295B
轨道中心:
EARTH
卫星名称:
HULIANWANG DIGUI-120
卫星全名:
HULIANWANG DIGUI-120
卫星状态:
在轨 (已飞行165 天)
发射日期:
2025-12-11 UTC
国别 :
中国 (CN)
星等 :
--
轨道信息
数据来源 国际轨道数据 AOE轨道数据
星历时间 2026-05-24T11:47:01+0800
1天前
查看轨道信息
2026-05-23T22:00:00+0800
1天前
查看轨道信息
半长轴 7527.44km 7527.44km
偏心率 0.0000824 0.0000584
轨道倾角 50.003° 49.999°
近地点辐角 351.706° 33.440°
升交点赤经 111.826° 113.889°
平近点角 8.380° 96.482°
近地点 1148.682km 1148.863km
远地点 1149.924km 1149.743km
周期 108.325分钟 108.325分钟
每日圈数 13.293272 13.293272
详细信息
使用方式:
暂无
2D轨道图
3D轨道图
轨道高度分析图
轨道倾角分析图
轨道综合分析图
查看轨道综合分析图